Location: Newark
(41.8083°N, 72.2500°W)
Time: 12:12:42
(UTC+00:00)

Altair - Pass Details

Date: 07 December 2021
Orbit: 1501 x 1683 km, 47.2° (Epoch: 20 January)

Event Time Altitude Azimuth Distance (km) Brightness Sun altitude
Rises 00:33:34 0° 293° (WNW) 4,696 10.9 -35.6°
Reaches altitude 10° 00:36:39 10° 294° (WNW) 3,694 10.2 -36.2°
Enters shadow 00:45:11 78° 310° (NW) 1,537 7.3 -37.8°
